RYR53VV LIEA-LZIB

Flight info

Callsign RYR53VV
Flight time 1h 29m
Altitude 38000
Route MINKA L5 ROMPO DCT GISPA DCT NIKOL DCT GIRDA DCT ADOMO DCT RADLY DCT NIGSI DCT BEGLA DCT KUVEX
Aircraft B738/M-SDE2E3FGHIRWXY/LB1

Departure

Time 2026-05-07 14:47
Airport Alghero-Fertilia Airport (LIEA)

Arrival

Time 2026-05-07 16:17
Airport M. R. Štefánik Airport (LZIB)
Time Latitude Longitude Altitude Speed Heading
2026-05-07 14:22 40.63129 8.29480 89 ft 0 kts 115°
2026-05-07 14:41 40.63132 8.29474 89 ft 4 kts 117°
2026-05-07 14:41 40.63147 8.29446 91 ft 4 kts 149°
2026-05-07 14:41 40.63170 8.29439 91 ft 4 kts 199°
2026-05-07 14:42 40.63175 8.29441 91 ft 0 kts 205°
2026-05-07 14:42 40.63175 8.29442 92 ft 0 kts 205°
2026-05-07 14:43 40.63175 8.29441 92 ft 1 kts 205°
2026-05-07 14:43 40.63135 8.29418 94 ft 12 kts 205°
2026-05-07 14:44 40.63037 8.29358 90 ft 18 kts 205°
2026-05-07 14:44 40.62918 8.29287 92 ft 16 kts 204°
2026-05-07 14:44 40.62855 8.29183 89 ft 15 kts 252°
2026-05-07 14:44 40.62798 8.29076 89 ft 15 kts 206°
2026-05-07 14:45 40.62691 8.29012 83 ft 19 kts 204°
2026-05-07 14:45 40.62558 8.28932 83 ft 23 kts 204°
2026-05-07 14:45 40.62415 8.28847 79 ft 23 kts 204°
2026-05-07 14:45 40.62266 8.28758 82 ft 23 kts 205°
2026-05-07 14:46 40.62168 8.28699 83 ft 23 kts 205°
2026-05-07 14:46 40.62029 8.28615 84 ft 22 kts 205°
2026-05-07 14:46 40.61927 8.28482 82 ft 21 kts 259°
2026-05-07 14:46 40.62027 8.28378 85 ft 21 kts
2026-05-07 14:47 40.62285 8.28515 85 ft 74 kts 24°
2026-05-07 14:47 40.62961 8.28920 93 ft 137 kts 25°
2026-05-07 14:47 40.63954 8.29537 384 ft 165 kts 26°
2026-05-07 14:47 40.64983 8.30221 1226 ft 166 kts 25°
2026-05-07 14:48 40.66036 8.30892 1954 ft 179 kts 25°
2026-05-07 14:48 40.67287 8.31628 2258 ft 211 kts 24°
2026-05-07 14:48 40.68682 8.32437 2667 ft 231 kts 23°
2026-05-07 14:48 40.70250 8.33354 2944 ft 259 kts 23°
2026-05-07 14:49 40.71916 8.34341 3773 ft 266 kts 23°
2026-05-07 14:49 40.73613 8.35354 4651 ft 270 kts 23°
2026-05-07 14:49 40.75340 8.36385 5503 ft 275 kts 24°
2026-05-07 14:49 40.77091 8.37436 6383 ft 278 kts 24°
2026-05-07 14:50 40.78771 8.38726 7195 ft 284 kts 45°
2026-05-07 14:50 40.79813 8.40914 8017 ft 284 kts 70°
2026-05-07 14:50 40.80474 8.43370 8882 ft 286 kts 72°
2026-05-07 14:50 40.81123 8.45868 9699 ft 290 kts 72°
2026-05-07 14:51 40.81787 8.48412 10384 ft 299 kts 71°
2026-05-07 14:51 40.82500 8.51117 10589 ft 325 kts 71°
2026-05-07 14:51 40.83265 8.53993 11127 ft 336 kts 71°
2026-05-07 14:51 40.84049 8.56922 11870 ft 340 kts 71°
2026-05-07 14:52 40.84828 8.59898 12570 ft 346 kts 75°
2026-05-07 14:52 40.85044 8.63066 13190 ft 350 kts 98°
2026-05-07 14:52 40.84642 8.66236 13959 ft 352 kts 102°
2026-05-07 14:52 40.84173 8.69431 14659 ft 357 kts 103°
2026-05-07 14:53 40.83696 8.72665 15310 ft 362 kts 103°
2026-05-07 14:53 40.83227 8.75959 15951 ft 368 kts 103°
2026-05-07 14:53 40.82765 8.79296 16598 ft 372 kts 103°
2026-05-07 14:53 40.82300 8.82677 17252 ft 376 kts 102°
2026-05-07 14:54 40.82207 8.86155 17816 ft 387 kts 82°
2026-05-07 14:54 40.83002 8.89572 18435 ft 393 kts 69°
2026-05-07 14:54 40.84052 8.92921 19044 ft 397 kts 68°
2026-05-07 14:54 40.85145 8.96293 19579 ft 403 kts 67°
2026-05-07 14:55 40.86251 8.99718 20101 ft 408 kts 68°
2026-05-07 14:55 40.87343 9.03148 20679 ft 412 kts 68°
2026-05-07 14:55 40.88445 9.06657 21230 ft 416 kts 68°
2026-05-07 14:55 40.89550 9.10211 21775 ft 419 kts 68°
2026-05-07 14:56 40.90656 9.13792 22247 ft 424 kts 68°
2026-05-07 14:56 40.91778 9.17431 22695 ft 429 kts 68°
2026-05-07 14:56 40.92907 9.21093 23215 ft 432 kts 68°
2026-05-07 14:56 40.94044 9.24786 23719 ft 435 kts 68°
2026-05-07 14:57 40.95189 9.28512 24140 ft 440 kts 68°
2026-05-07 14:57 40.96342 9.32285 24570 ft 444 kts 68°
2026-05-07 14:57 40.97502 9.36088 24989 ft 448 kts 68°
2026-05-07 14:57 40.98671 9.39932 25418 ft 452 kts 68°
2026-05-07 14:58 40.99848 9.43807 25799 ft 456 kts 68°
2026-05-07 14:58 41.01039 9.47730 26151 ft 462 kts 68°
2026-05-07 14:58 41.02240 9.51691 26503 ft 466 kts 68°
2026-05-07 14:58 41.03450 9.55689 26868 ft 470 kts 68°
2026-05-07 14:59 41.04672 9.59730 27204 ft 474 kts 68°
2026-05-07 14:59 41.05899 9.63801 27534 ft 478 kts 68°
2026-05-07 14:59 41.07136 9.67909 27865 ft 482 kts 68°
2026-05-07 14:59 41.08384 9.72049 28187 ft 486 kts 68°
2026-05-07 15:00 41.09648 9.76217 28496 ft 490 kts 67°
2026-05-07 15:00 41.11175 9.80267 28787 ft 493 kts 58°
2026-05-07 15:00 41.12948 9.84167 29094 ft 496 kts 57°
2026-05-07 15:00 41.14786 9.88063 29363 ft 500 kts 56°
2026-05-07 15:01 41.16647 9.91976 29643 ft 503 kts 56°
2026-05-07 15:01 41.18507 9.95916 29921 ft 506 kts 56°
2026-05-07 15:01 41.20370 9.99900 30200 ft 509 kts 57°
2026-05-07 15:01 41.22231 10.03932 30439 ft 513 kts 57°
2026-05-07 15:02 41.24087 10.07989 30708 ft 516 kts 57°
2026-05-07 15:02 41.25949 10.12074 31013 ft 517 kts 57°
2026-05-07 15:02 41.27812 10.16168 31312 ft 519 kts 57°
2026-05-07 15:02 41.29682 10.20283 31601 ft 521 kts 57°
2026-05-07 15:03 41.31556 10.24415 31885 ft 522 kts 57°
2026-05-07 15:03 41.33431 10.28549 32174 ft 522 kts 57°
2026-05-07 15:03 41.35307 10.32692 32428 ft 524 kts 57°
2026-05-07 15:03 41.37194 10.36862 32621 ft 527 kts 57°
2026-05-07 15:04 41.39083 10.41047 32919 ft 527 kts 57°
2026-05-07 15:04 41.40946 10.45178 33247 ft 527 kts 57°
2026-05-07 15:04 41.42831 10.49360 33532 ft 528 kts 57°
2026-05-07 15:04 41.44718 10.53552 33805 ft 528 kts 57°
2026-05-07 15:05 41.46605 10.57750 34081 ft 528 kts 57°
2026-05-07 15:05 41.48493 10.61956 34300 ft 529 kts 57°
2026-05-07 15:05 41.50386 10.66180 34518 ft 531 kts 57°
2026-05-07 15:05 41.52279 10.70409 34773 ft 531 kts 57°
2026-05-07 15:06 41.54169 10.74639 35058 ft 530 kts 57°
2026-05-07 15:06 41.56057 10.78870 35295 ft 531 kts 57°
2026-05-07 15:06 41.57950 10.83120 35478 ft 533 kts 57°
2026-05-07 15:06 41.59843 10.87373 35693 ft 534 kts 57°
2026-05-07 15:07 41.61740 10.91641 35903 ft 534 kts 57°
2026-05-07 15:07 41.63634 10.95911 36122 ft 534 kts 57°
2026-05-07 15:07 41.65528 11.00185 36343 ft 535 kts 57°
2026-05-07 15:07 41.67422 11.04467 36531 ft 536 kts 57°
2026-05-07 15:08 41.69318 11.08758 36708 ft 537 kts 57°
2026-05-07 15:08 41.71215 11.13061 36942 ft 536 kts 57°
2026-05-07 15:08 41.73108 11.17359 37194 ft 535 kts 57°
2026-05-07 15:08 41.74991 11.21639 37418 ft 534 kts 57°
2026-05-07 15:09 41.76877 11.25929 37592 ft 534 kts 56°
2026-05-07 15:09 41.78824 11.30157 37797 ft 531 kts 50°
2026-05-07 15:09 41.81133 11.33973 37983 ft 524 kts 40°
2026-05-07 15:09 41.83748 11.37338 37988 ft 519 kts 31°
2026-05-07 15:10 41.89557 11.42777 37997 ft 510 kts 25°
2026-05-07 15:10 41.95399 11.48076 37986 ft 504 kts 25°
2026-05-07 15:11 42.01162 11.53375 37994 ft 500 kts 26°
2026-05-07 15:11 42.06886 11.58692 38020 ft 501 kts 26°
2026-05-07 15:12 42.12652 11.64074 38010 ft 507 kts 26°
2026-05-07 15:12 42.18453 11.69512 37998 ft 508 kts 26°
2026-05-07 15:13 42.24262 11.74966 38001 ft 509 kts 26°
2026-05-07 15:13 42.30067 11.80430 37997 ft 509 kts 26°
2026-05-07 15:14 42.35868 11.85900 37994 ft 508 kts 26°
2026-05-07 15:14 42.41654 11.91368 37993 ft 507 kts 27°
2026-05-07 15:15 42.47428 11.96835 37984 ft 506 kts 27°
2026-05-07 15:15 42.53182 12.02296 37993 ft 504 kts 27°
2026-05-07 15:16 42.58916 12.07753 37983 ft 502 kts 27°
2026-05-07 15:16 42.64626 12.13198 37988 ft 500 kts 27°
2026-05-07 15:17 42.70267 12.18588 37995 ft 498 kts 27°
2026-05-07 15:17 42.75928 12.24011 37981 ft 497 kts 28°
2026-05-07 15:18 42.81570 12.29429 37968 ft 495 kts 28°
2026-05-07 15:18 42.87184 12.34830 37988 ft 493 kts 28°
2026-05-07 15:19 42.92781 12.40228 37981 ft 492 kts 28°
2026-05-07 15:19 42.98369 12.45635 37983 ft 492 kts 28°
2026-05-07 15:20 43.03944 12.51032 37978 ft 490 kts 29°
2026-05-07 15:20 43.09504 12.56429 37954 ft 490 kts 29°
2026-05-07 15:21 43.15055 12.61829 37960 ft 489 kts 29°
2026-05-07 15:21 43.20589 12.67227 37967 ft 489 kts 29°
2026-05-07 15:22 43.26122 12.72638 37987 ft 488 kts 30°
2026-05-07 15:22 43.31649 12.78056 37990 ft 488 kts 30°
2026-05-07 15:23 43.37167 12.83476 37998 ft 486 kts 30°
2026-05-07 15:23 43.42670 12.88892 37996 ft 486 kts 30°
2026-05-07 15:24 43.48170 12.94317 37989 ft 486 kts 30°
2026-05-07 15:24 43.53659 12.99744 37993 ft 485 kts 30°
2026-05-07 15:25 43.59144 13.05179 37996 ft 485 kts 30°
2026-05-07 15:25 43.64624 13.10627 37998 ft 485 kts 31°
2026-05-07 15:26 43.70099 13.16078 37989 ft 485 kts 31°
2026-05-07 15:26 43.75572 13.21540 37985 ft 485 kts 31°
2026-05-07 15:27 43.81039 13.27005 37997 ft 484 kts 31°
2026-05-07 15:27 43.86492 13.32476 37989 ft 484 kts 31°
2026-05-07 15:28 43.91943 13.37955 37997 ft 484 kts 31°
2026-05-07 15:28 43.97385 13.43438 38003 ft 483 kts 32°
2026-05-07 15:29 44.02817 13.48922 38000 ft 483 kts 32°
2026-05-07 15:29 44.08247 13.54417 38001 ft 482 kts 32°
2026-05-07 15:30 44.13662 13.59911 37998 ft 482 kts 32°
2026-05-07 15:30 44.19072 13.65407 38007 ft 480 kts 31°
2026-05-07 15:31 44.24904 13.69647 38011 ft 468 kts 12°
2026-05-07 15:31 44.31114 13.71885 38010 ft 464 kts
2026-05-07 15:32 44.37391 13.73979 38012 ft 464 kts
2026-05-07 15:32 44.43668 13.76132 38018 ft 465 kts
2026-05-07 15:33 44.49946 13.78334 38018 ft 466 kts
2026-05-07 15:33 44.56236 13.80557 38023 ft 467 kts
2026-05-07 15:34 44.61475 13.82416 38023 ft 468 kts
2026-05-07 15:34 44.67790 13.84656 38019 ft 469 kts
2026-05-07 15:35 44.74118 13.86906 38021 ft 470 kts
2026-05-07 15:35 44.80463 13.89163 38018 ft 470 kts
2026-05-07 15:36 44.86811 13.91427 38020 ft 471 kts
2026-05-07 15:36 44.93174 13.93703 38020 ft 472 kts
2026-05-07 15:37 44.99545 13.95990 38017 ft 473 kts
2026-05-07 15:37 45.05920 13.98284 38018 ft 473 kts
2026-05-07 15:38 45.12300 14.00582 38014 ft 473 kts
2026-05-07 15:38 45.18665 14.02881 38026 ft 472 kts
2026-05-07 15:39 45.25036 14.05186 38018 ft 472 kts
2026-05-07 15:39 45.31408 14.07497 38007 ft 473 kts
2026-05-07 15:40 45.37734 14.09800 38013 ft 472 kts
2026-05-07 15:40 45.44090 14.12120 38009 ft 472 kts 10°
2026-05-07 15:41 45.50174 14.15824 37997 ft 482 kts 30°
2026-05-07 15:41 45.55637 14.21407 38000 ft 484 kts 33°
2026-05-07 15:42 45.61050 14.27118 38008 ft 484 kts 33°
2026-05-07 15:42 45.66501 14.32782 37995 ft 485 kts 33°
2026-05-07 15:43 45.71973 14.38424 37983 ft 485 kts 33°
2026-05-07 15:43 45.77448 14.44074 37987 ft 485 kts 33°
2026-05-07 15:44 45.82926 14.49746 37967 ft 486 kts 33°
2026-05-07 15:44 45.88402 14.55434 37963 ft 486 kts 33°
2026-05-07 15:45 45.93874 14.61132 37968 ft 486 kts 33°
2026-05-07 15:45 45.99419 14.66638 37955 ft 483 kts 27°
2026-05-07 15:46 46.08174 14.73753 37946 ft 482 kts 26°
2026-05-07 15:47 46.14012 14.78467 37947 ft 482 kts 26°
2026-05-07 15:47 46.19836 14.83269 37945 ft 482 kts 27°
2026-05-07 15:48 46.25646 14.88106 37938 ft 481 kts 27°
2026-05-07 15:48 46.31436 14.92938 37934 ft 480 kts 27°
2026-05-07 15:49 46.37220 14.97772 37952 ft 480 kts 27°
2026-05-07 15:49 46.43007 15.02618 37951 ft 481 kts 27°
2026-05-07 15:50 46.48801 15.07484 37945 ft 482 kts 27°
2026-05-07 15:50 46.51705 15.09928 37759 ft 486 kts 27°
2026-05-07 15:50 46.54642 15.12400 37264 ft 489 kts 27°
2026-05-07 15:50 46.57577 15.14876 36735 ft 488 kts 27°
2026-05-07 15:51 46.60509 15.17354 36201 ft 487 kts 27°
2026-05-07 15:51 46.63439 15.19832 35651 ft 487 kts 27°
2026-05-07 15:51 46.66307 15.22478 35036 ft 490 kts 34°
2026-05-07 15:51 46.69043 15.25447 34439 ft 492 kts 36°
2026-05-07 15:52 46.71738 15.28539 33828 ft 494 kts 37°
2026-05-07 15:52 46.74424 15.31677 33206 ft 495 kts 38°
2026-05-07 15:52 46.77120 15.34820 32557 ft 497 kts 37°
2026-05-07 15:52 46.79831 15.37954 32024 ft 496 kts 37°
2026-05-07 15:53 46.82532 15.41052 31563 ft 492 kts 37°
2026-05-07 15:53 46.85222 15.44120 31103 ft 490 kts 38°
2026-05-07 15:53 46.87905 15.47171 30641 ft 487 kts 38°
2026-05-07 15:53 46.90574 15.50207 30182 ft 484 kts 38°
2026-05-07 15:54 46.93225 15.53226 29728 ft 482 kts 38°
2026-05-07 15:54 46.95858 15.56228 29275 ft 479 kts 38°
2026-05-07 15:54 46.98477 15.59219 28804 ft 476 kts 38°
2026-05-07 15:54 47.01071 15.62188 28342 ft 473 kts 38°
2026-05-07 15:55 47.03658 15.65153 27877 ft 470 kts 38°
2026-05-07 15:55 47.06223 15.68097 27413 ft 467 kts 38°
2026-05-07 15:55 47.08772 15.71027 26948 ft 464 kts 38°
2026-05-07 15:55 47.11307 15.73943 26493 ft 461 kts 38°
2026-05-07 15:56 47.13788 15.76801 26029 ft 458 kts 38°
2026-05-07 15:56 47.16285 15.79682 25580 ft 455 kts 38°
2026-05-07 15:56 47.18765 15.82546 25132 ft 452 kts 39°
2026-05-07 15:56 47.21230 15.85397 24674 ft 449 kts 39°
2026-05-07 15:57 47.23670 15.88222 24218 ft 445 kts 39°
2026-05-07 15:57 47.26097 15.91036 23768 ft 442 kts 39°
2026-05-07 15:57 47.28507 15.93831 23322 ft 439 kts 39°
2026-05-07 15:57 47.30894 15.96604 22873 ft 436 kts 39°
2026-05-07 15:58 47.33269 15.99367 22426 ft 433 kts 39°
2026-05-07 15:58 47.35603 16.02142 21989 ft 429 kts 43°
2026-05-07 15:58 47.37658 16.05294 21531 ft 425 kts 53°
2026-05-07 15:58 47.39328 16.08852 21094 ft 420 kts 60°
2026-05-07 15:59 47.40889 16.12481 20639 ft 417 kts 60°
2026-05-07 15:59 47.42428 16.16099 20200 ft 415 kts 60°
2026-05-07 15:59 47.43960 16.19693 19744 ft 413 kts 60°
2026-05-07 15:59 47.45490 16.23266 19317 ft 410 kts 60°
2026-05-07 16:00 47.47012 16.26805 18877 ft 407 kts 60°
2026-05-07 16:00 47.48530 16.30325 18448 ft 404 kts 60°
2026-05-07 16:00 47.50037 16.33815 18014 ft 402 kts 59°
2026-05-07 16:00 47.51535 16.37286 17591 ft 399 kts 59°
2026-05-07 16:01 47.53024 16.40735 17172 ft 396 kts 59°
2026-05-07 16:01 47.54501 16.44162 16747 ft 393 kts 59°
2026-05-07 16:01 47.55965 16.47563 16325 ft 390 kts 59°
2026-05-07 16:01 47.57417 16.50939 15900 ft 387 kts 59°
2026-05-07 16:02 47.58856 16.54293 15490 ft 384 kts 59°
2026-05-07 16:02 47.60281 16.57617 15079 ft 381 kts 59°
2026-05-07 16:02 47.61697 16.60922 14670 ft 378 kts 59°
2026-05-07 16:02 47.63101 16.64203 14276 ft 375 kts 58°
2026-05-07 16:03 47.64490 16.67456 13860 ft 372 kts 58°
2026-05-07 16:03 47.65868 16.70686 13448 ft 369 kts 58°
2026-05-07 16:03 47.67231 16.73883 13053 ft 365 kts 58°
2026-05-07 16:03 47.68585 16.77062 12660 ft 362 kts 58°
2026-05-07 16:04 47.69923 16.80209 12246 ft 359 kts 58°
2026-05-07 16:04 47.71249 16.83334 11857 ft 356 kts 58°
2026-05-07 16:04 47.72564 16.86433 11464 ft 353 kts 58°
2026-05-07 16:04 47.73862 16.89497 11078 ft 350 kts 58°
2026-05-07 16:05 47.75152 16.92543 10654 ft 343 kts 58°
2026-05-07 16:05 47.76393 16.95482 10458 ft 327 kts 58°
2026-05-07 16:05 47.77570 16.98267 10314 ft 310 kts 58°
2026-05-07 16:05 47.78688 17.00915 10210 ft 300 kts 58°
2026-05-07 16:06 47.79790 17.03527 10109 ft 303 kts 58°
2026-05-07 16:06 47.80921 17.06213 9943 ft 302 kts 58°
2026-05-07 16:06 47.82027 17.08841 9656 ft 305 kts 58°
2026-05-07 16:06 47.83026 17.11601 9349 ft 302 kts 73°
2026-05-07 16:07 47.83321 17.14666 9077 ft 297 kts 87°
2026-05-07 16:07 47.83456 17.17732 8766 ft 297 kts 87°
2026-05-07 16:07 47.83585 17.20790 8481 ft 295 kts 87°
2026-05-07 16:07 47.83718 17.23827 8195 ft 293 kts 87°
2026-05-07 16:08 47.83853 17.26850 7869 ft 293 kts 87°
2026-05-07 16:08 47.83992 17.29875 7535 ft 293 kts 86°
2026-05-07 16:08 47.84132 17.32903 7214 ft 293 kts 87°
2026-05-07 16:08 47.84271 17.35915 6896 ft 289 kts 87°
2026-05-07 16:09 47.84410 17.38895 6577 ft 288 kts 87°
2026-05-07 16:09 47.84548 17.41877 6237 ft 289 kts 87°
2026-05-07 16:09 47.84726 17.44849 5906 ft 289 kts 79°
2026-05-07 16:09 47.85529 17.47571 5574 ft 289 kts 51°
2026-05-07 16:10 47.87030 17.49437 5373 ft 276 kts 24°
2026-05-07 16:10 47.88851 17.50140 5147 ft 269 kts
2026-05-07 16:10 47.90680 17.49820 4903 ft 264 kts 342°
2026-05-07 16:10 47.92411 17.48966 4710 ft 260 kts 338°
2026-05-07 16:11 47.94083 17.48045 4600 ft 253 kts 337°
2026-05-07 16:11 47.95719 17.47149 4481 ft 248 kts 338°
2026-05-07 16:11 47.97321 17.46298 4359 ft 241 kts 338°
2026-05-07 16:11 47.98867 17.45486 4295 ft 229 kts 338°
2026-05-07 16:12 48.00330 17.44722 4190 ft 216 kts 338°
2026-05-07 16:12 48.01711 17.44001 4088 ft 206 kts 338°
2026-05-07 16:12 48.02958 17.43053 3951 ft 196 kts 315°
2026-05-07 16:12 48.03879 17.41624 3739 ft 189 kts 311°
2026-05-07 16:13 48.04803 17.40253 3501 ft 186 kts 311°
2026-05-07 16:13 48.05701 17.38888 3251 ft 182 kts 311°
2026-05-07 16:13 48.06577 17.37529 3011 ft 180 kts 310°
2026-05-07 16:13 48.07437 17.36186 2784 ft 178 kts 310°
2026-05-07 16:14 48.08293 17.34848 2520 ft 178 kts 311°
2026-05-07 16:14 48.09147 17.33517 2309 ft 178 kts 311°
2026-05-07 16:14 48.10011 17.32169 2074 ft 181 kts 312°
2026-05-07 16:14 48.10883 17.30810 1824 ft 180 kts 312°
2026-05-07 16:15 48.11723 17.29496 1597 ft 169 kts 313°
2026-05-07 16:15 48.12518 17.28259 1383 ft 165 kts 313°
2026-05-07 16:15 48.13306 17.27032 1159 ft 162 kts 314°
2026-05-07 16:15 48.14076 17.25831 940 ft 159 kts 314°
2026-05-07 16:16 48.14825 17.24665 733 ft 157 kts 314°
2026-05-07 16:16 48.15580 17.23485 499 ft 156 kts 314°
2026-05-07 16:16 48.16289 17.22377 427 ft 126 kts 315°
2026-05-07 16:16 48.16740 17.21685 430 ft 64 kts 314°
2026-05-07 16:17 48.17021 17.21247 428 ft 44 kts 314°
2026-05-07 16:17 48.17129 17.21077 419 ft 10 kts 310°
2026-05-07 16:17 48.17110 17.20993 424 ft 9 kts 227°
2026-05-07 16:17 48.17065 17.20923 425 ft 9 kts 226°
2026-05-07 16:18 48.17031 17.20862 430 ft 4 kts 262°
2026-05-07 16:18 48.17051 17.20831 423 ft 4 kts 318°
2026-05-07 16:18 48.17072 17.20798 420 ft 4 kts 314°
2026-05-07 16:18 48.17093 17.20764 430 ft 4 kts 312°
2026-05-07 16:19 48.17119 17.20722 424 ft 8 kts 312°
2026-05-07 16:19 48.17164 17.20640 430 ft 12 kts 293°
2026-05-07 16:19 48.17139 17.20533 426 ft 11 kts 224°
2026-05-07 16:19 48.17083 17.20452 425 ft 11 kts 224°
2026-05-07 16:20 48.17028 17.20373 422 ft 11 kts 224°
2026-05-07 16:20 48.16975 17.20296 429 ft 10 kts 224°
2026-05-07 16:20 48.16941 17.20247 422 ft 10 kts 224°
2026-05-07 16:20 48.16908 17.20194 431 ft 3 kts 249°
2026-05-07 16:21 48.16917 17.20175 431 ft 2 kts 314°
2026-05-07 16:21 48.16932 17.20151 419 ft 4 kts 314°
2026-05-07 16:21 48.16944 17.20133 428 ft 0 kts 314°